Location: Blandford
(50.8667°N, 2.1667°W)
Time: 13:54:39
(UTC+00:00)

Cosmos 1697 Rocket - Pass Details

Date: 09 April 2020
Orbit: 831 x 845 km, 71.0° (Epoch: 26 May)

Event Time Altitude Azimuth Distance (km) Brightness Sun altitude
Rises 22:49:04 0° 323° (NW) 3,413 7.0 -28.6°
Reaches altitude 10° 22:51:52 10° 311° (NW) 2,474 5.9 -28.7°
Maximum altitude 22:56:27 26° 257° (WSW) 1,608 4.2 -29.0°
Enters shadow 22:56:44 26° 252° (WSW) 1,612 4.1 -29.0°
